Weather History for KDAN - April, 2013

Change the Weather History Date:

Friday, April 12, 2013

  Actual Average Record
Temperature  
Mean Temperature 72 °F 57 °F  
Max Temperature 84 °F 69 °F 89 °F (1977)
Min Temperature 59 °F 46 °F 28 °F (1973)
Degree Days  
Heating Degree Days 0 9  
Month to date heating degree days 106 121  
Since 1 July heating degree days 3561 3632  
Cooling Degree Days 7 1  
Month to date cooling degree days 28 11  
Year to date cooling degree days 30 14  
Growing Degree Days 22 (Base 50)    
Moisture  
Dew Point 59 °F    
Average Humidity 56    
Maximum Humidity 81    
Minimum Humidity 31    
Precipitation  
Precipitation 0.92 in 0.11 in 1.54 in (1956)
Month to date precipitation 1.80 1.52  
Year to date precipitation 14.16 12.06  
Snow  
Snow 0.00 in - - ()
Month to date snowfall 0.0  
Since 1 July snowfall 1.7  
Snow Depth 0.00 in    
Sea Level Pressure  
Sea Level Pressure 29.67 in    
Wind  
Wind Speed 10 mph (SW)    
Max Wind Speed 31 mph    
Max Gust Speed 43 mph    
Visibility 8 miles    
Events Rain , Thunderstorm    
T = Trace of Precipitation, MM = Missing Value Source: NWS Daily Summary

Daily Weather History Graph

Daily Weather History Graph

Search for Another Location

Airport or City:

Trip Planner

Search our weather history database for the weather conditions in past years. The results will help you decide how hot, cold, wet, or windy it might be!

Date:

Astronomy

Apr. 12, 2013 Rise Set
Actual Time 6:47 AM EDT 7:49 PM EDT
Civil Twilight 6:20 AM EDT 8:15 PM EDT
Nautical Twilight 5:49 AM EDT 8:47 PM EDT
Astronomical Twilight 5:16 AM EDT 9:19 PM EDT
Moon 7:59 AM EDT (4/12) 10:14 PM EDT (4/12)
Length of Visible Light 13h 54m
Length of Day
13h 01m
Waxing Crescent, 5% of the Moon is Illuminated
Apr 12
Waxing Crescent
Apr 18
First Quarter
Apr 25
Full
May 2
Last Quarter
May 9
New

Hourly Weather History & Observations

Time (EDT) Temp. Heat Index Dew Point Humidity Pressure Visibility Wind Dir Wind Speed Gust Speed Precip Events Conditions
12:53 AM 73.9 °F - 62.1 °F 66% 29.73 in 10.0 mi South 8.1 mph - N/A   Overcast
1:53 AM 72.0 °F - 62.1 °F 71% 29.71 in 10.0 mi South 6.9 mph - N/A   Overcast
2:08 AM 71.6 °F - 62.6 °F 73% 29.74 in 10.0 mi South 9.2 mph - N/A   Overcast
2:40 AM 71.6 °F - 62.6 °F 73% 29.73 in 10.0 mi South 8.1 mph 21.9 mph N/A   Mostly Cloudy
2:53 AM 71.1 °F - 62.1 °F 73% 29.69 in 10.0 mi South 13.8 mph 20.7 mph N/A   Overcast
3:31 AM 71.6 °F - 62.6 °F 73% 29.70 in 10.0 mi South 8.1 mph 19.6 mph N/A   Overcast
3:53 AM 71.1 °F - 62.1 °F 73% 29.65 in 10.0 mi South 11.5 mph 20.7 mph N/A   Overcast
4:22 AM 69.8 °F - 62.6 °F 78% 29.69 in 5.0 mi South 10.4 mph 26.5 mph 0.00 in Rain , Thunderstorm Rain
4:37 AM 68.0 °F - 64.4 °F 88% 29.69 in 5.0 mi South 8.1 mph 23.0 mph 0.00 in Rain Rain
4:53 AM 68.0 °F - 64.0 °F 87% 29.66 in 8.0 mi South 8.1 mph - N/A Rain Light Rain
5:32 AM 64.4 °F - 60.8 °F 88% 29.71 in 2.0 mi WSW 29.9 mph 38.0 mph N/A Rain Light Rain
5:35 AM 64.4 °F - 60.8 °F 88% 29.71 in 1.2 mi SW 26.5 mph 42.6 mph N/A Rain Heavy Rain
5:39 AM 64.4 °F - 60.8 °F 88% 29.71 in 0.8 mi SW 26.5 mph 42.6 mph N/A Rain Heavy Rain
5:46 AM 62.6 °F - 60.8 °F 94% 29.68 in 0.8 mi SW 13.8 mph 38.0 mph N/A Rain Heavy Rain
5:49 AM 62.6 °F - 60.8 °F 94% 29.69 in 1.2 mi WSW 16.1 mph 29.9 mph N/A Rain , Thunderstorm Heavy Rain
5:53 AM 64.0 °F - 61.0 °F 90% 29.67 in 3.0 mi SW 16.1 mph - N/A Rain , Thunderstorm Rain
6:07 AM 64.4 °F - 60.8 °F 88% 29.68 in 5.0 mi WSW 10.4 mph - 0.06 in Rain Light Rain
6:53 AM 64.0 °F - 61.0 °F 90% 29.65 in 10.0 mi SSW 4.6 mph - 0.22 in Rain Light Rain
7:53 AM 64.9 °F - 62.1 °F 90% 29.67 in 10.0 mi Variable 3.5 mph - 0.22 in   Mostly Cloudy
8:23 AM 66.2 °F - 62.6 °F 88% 29.69 in 10.0 mi South 4.6 mph - 0.10 in   Mostly Cloudy
8:53 AM 68.0 °F - 63.0 °F 84% 29.67 in 10.0 mi SSW 6.9 mph - 0.19 in   Overcast
9:04 AM 68.0 °F - 62.6 °F 83% 29.69 in 10.0 mi SSW 8.1 mph - 0.03 in   Overcast
9:25 AM 69.8 °F - 64.4 °F 83% 29.68 in 10.0 mi SSW 11.5 mph 19.6 mph 0.09 in   Mostly Cloudy
9:33 AM 71.6 °F - 64.4 °F 78% 29.68 in 10.0 mi SSW 10.4 mph 21.9 mph 0.11 in   Scattered Clouds
9:53 AM 71.1 °F - 63.0 °F 75% 29.65 in 10.0 mi SSW 13.8 mph 21.9 mph 0.15 in   Scattered Clouds
10:20 AM 73.4 °F - 64.4 °F 73% 29.68 in 10.0 mi SSW 11.5 mph 18.4 mph 0.05 in   Overcast
10:44 AM 73.4 °F - 62.6 °F 69% 29.68 in 10.0 mi SW 12.7 mph 25.3 mph 0.06 in   Overcast
10:53 AM 75.0 °F - 63.0 °F 66% 29.65 in 10.0 mi SW 16.1 mph 26.5 mph 0.06 in   Mostly Cloudy
11:53 AM 75.9 °F - 62.1 °F 62% 29.66 in 10.0 mi WSW 13.8 mph 20.7 mph N/A   Mostly Cloudy
12:53 PM 80.1 °F 81.1 °F 61.0 °F 52% 29.63 in 10.0 mi West 10.4 mph 24.2 mph N/A   Scattered Clouds
1:53 PM 81.0 °F 80.8 °F 55.9 °F 42% 29.60 in 10.0 mi SSW 16.1 mph 27.6 mph N/A   Scattered Clouds
2:53 PM 82.0 °F 82.4 °F 60.1 °F 47% 29.59 in 10.0 mi WSW 9.2 mph 23.0 mph N/A   Mostly Cloudy
3:53 PM 81.0 °F 81.1 °F 57.9 °F 45% 29.57 in 10.0 mi WSW 17.3 mph 23.0 mph N/A   Mostly Cloudy
4:53 PM 81.0 °F 81.0 °F 57.0 °F 44% 29.55 in 10.0 mi West 9.2 mph - N/A   Mostly Cloudy
5:53 PM 82.0 °F 81.7 °F 57.0 °F 42% 29.57 in 10.0 mi West 9.2 mph - N/A   Mostly Cloudy
6:53 PM 77.0 °F - 50.0 °F 39% 29.59 in 10.0 mi NNW 12.7 mph - N/A   Mostly Cloudy
7:53 PM 73.0 °F - 41.0 °F 31% 29.64 in 10.0 mi NW 10.4 mph 18.4 mph N/A   Clear
8:53 PM 70.0 °F - 37.0 °F 30% 29.67 in 10.0 mi WNW 8.1 mph - N/A   Clear
9:53 PM 68.0 °F - 37.0 °F 32% 29.70 in 10.0 mi WNW 6.9 mph - N/A   Clear
10:53 PM 64.9 °F - 39.0 °F 39% 29.72 in 10.0 mi WNW 6.9 mph - N/A   Clear
11:53 PM 61.0 °F - 41.0 °F 48% 29.75 in 10.0 mi West 6.9 mph - N/A   Clear